This is the latest recevied weather packets stored in our database for station/object TA2LKM-11. If no packets are shown the sender has not sent any weather packets the latest 10 day(s).
| Time | Temp. | Humidity | Pressure | Rain* | Wind** | Luminosity | Snow |
|---|---|---|---|---|---|---|---|
| 1788321843 | 22.22° C | 48% | 1016 hPa | - | - | - | - |
| 1788320942 | 19.44° C | 50% | 1015.3 hPa | - | - | - | - |
| 1788320042 | 19.44° C | 50% | 1015.3 hPa | - | - | - | - |
| 1788319142 | 19.44° C | 50% | 1015.3 hPa | - | - | - | - |
| 1788318242 | 19.44° C | 50% | 1015.3 hPa | - | - | - | - |
| 1788317360 | 19.44° C | 50% | 1015.3 hPa | - | - | - | - |
| 1788316441 | 19.44° C | 50% | 1015.3 hPa | - | - | - | - |
| 1788315541 | 18.89° C | 53% | 1015.2 hPa | - | - | - | - |
| 1788315452 | 19.44° C | 53% | 1015.1 hPa | - | - | - | - |
| 1788314552 | 19.44° C | 53% | 1015.1 hPa | - | - | - | - |
| 1788313651 | 18.89° C | 56% | 1015.1 hPa | - | - | - | - |
| 1788312750 | 19.44° C | 56% | 1015.2 hPa | - | - | - | - |
| 1788311850 | 20° C | 55% | 1015.2 hPa | - | - | - | - |
| 1788310948 | 20.56° C | 53% | 1015 hPa | - | - | - | - |
| 1788310047 | 21.11° C | 53% | 1015 hPa | - | - | - | - |
| 1788309959 | 21.11° C | 53% | 1015.1 hPa | - | - | - | - |
| 1788309058 | 22.22° C | 52% | 1014.9 hPa | - | - | - | - |
| 1788308157 | 21.67° C | 48% | 1014.8 hPa | - | - | - | - |
| 1788307256 | 21.67° C | 51% | 1014.9 hPa | - | - | - | - |
| 1788307168 | 21.67° C | 48% | 1014.8 hPa | - | - | - | - |
| 1788306267 | 21.67° C | 48% | 1014.8 hPa | - | - | - | - |
| 1788305366 | 21.11° C | 49% | 1014.6 hPa | - | - | - | - |
| 1788304465 | 21.67° C | 49% | 1014.7 hPa | - | - | - | - |
| 1788303564 | 21.67° C | 48% | 1014.8 hPa | - | - | - | - |
| 1788302664 | 21.67° C | 48% | 1014.8 hPa | - | - | - | - |
* Rain since midnight (hover to see other rain measurements)
** Current wind speed in m/s (hover to see current wind gust speed)